Location: Lane
(33.5226°N, 79.8788°W)
Time: 05:12:11
(UTC+00:00)

Transit 2A Rocket - Pass Details

Date: 08 October 2022
Orbit: 589 x 911 km, 66.7° (Epoch: 27 November)

Event Time Altitude Azimuth Distance (km) Brightness Sun altitude
Exits shadow 10:17:20 20° 288° (WNW) 1,377 5.8 -13.6°
Maximum altitude 10:18:09 21° 304° (NW) 1,334 5.8 -13.5°
Drops below altitude 10° 10:21:26 10° 355° (N) 1,925 7.1 -12.8°
Sets 10:24:09 0° 11° (NNE) 2,849 8.1 -12.2°
